Observations for Trim Market St
| Time | AQI | Temp °C | Hum % | Pres Pa | CO μg/m³ | H₂S μg/m³ | NO μg/m³ | NO₂ μg/m³ | O₃ μg/m³ | SO₂ μg/m³ | PM1 μg/m³ | PM2.5 μg/m³ | PM10 μg/m³ |
|---|---|---|---|---|---|---|---|---|---|---|---|---|---|
| Sunday 23 August 2026 | |||||||||||||
| 08:52 | 2 | 16.5 | 63 | 57,524 | 0.41 | 0 | 3.05 | 9.54 | 36.79 | 0 | 0.71 | 3.37 | 5.53 |
| 08:51 | 2 | 16.5 | 63 | 57,523 | 0.45 | 0 | 3.65 | 11.79 | 35.91 | 0 | 1.43 | 3.87 | 5.53 |
| 08:50 | 2 | 16.4 | 63 | 57,523 | 0.53 | 0 | 3.15 | 17.67 | 33.47 | 0 | 0.71 | 2.38 | 3.53 |
| 08:49 | 2 | 16.4 | 63 | 57,524 | 0.42 | 0 | 2.78 | 8.1 | 38.04 | 0 | 0.71 | 2.38 | 3.53 |
| 08:48 | 2 | 16.4 | 63 | 57,520 | 0.42 | 0 | 2.5 | 7.27 | 44.87 | 0 | 0.71 | 3.37 | 5.53 |
| 08:47 | 2 | 16.4 | 64 | 57,521 | 0.38 | 0 | 1.93 | 8.02 | 44.02 | 0 | 0 | 2.37 | 3.54 |
| 08:46 | 2 | 16.3 | 64 | 57,523 | 0.36 | 0 | 1.76 | 7.71 | 51.16 | 0 | 0 | 2.37 | 3.54 |
| 08:44 | 2 | 16.3 | 64 | 57,524 | 0.38 | 0 | 1.64 | 7.4 | 45.62 | 0 | 0.71 | 2.86 | 4.21 |
| 08:43 | 2 | 16.3 | 64 | 57,520 | 0.4 | 0 | 1.59 | 7.4 | 48.29 | 0 | 0 | 2.36 | 3.54 |
| 08:41 | 2 | 16.2 | 64 | 57,505 | 0.36 | 0 | 1.91 | 6.99 | 47.07 | 0 | 0 | 2.35 | 3.55 |
| 08:37 | 2 | 16.1 | 64 | 57,462 | 0.38 | 0 | 1.98 | 7.43 | 46.73 | 0 | 1.43 | 2.33 | 5.55 |
| 08:36 | 2 | 16.1 | 64 | 57,455 | 0.38 | 0 | 1.79 | 7.54 | 42.88 | 0 | 0.71 | 2.33 | 3.57 |
| 08:32 | 2 | 16 | 65 | 57,423 | 0.38 | 0 | 2.46 | 7.66 | 39.22 | 0 | 0 | 2.31 | 3.59 |
| 08:28 | 2 | 15.8 | 65 | 57,413 | 0.53 | 0 | 3.17 | 24.3 | 32.47 | 0 | 0.71 | 2.29 | 3.6 |
| 08:26 | 2 | 15.8 | 65 | 57,391 | 0.37 | 0 | 2.2 | 8.14 | 34.57 | 0 | 0 | 2.29 | 3.6 |
| 08:25 | 2 | 15.7 | 66 | 57,369 | 0.38 | 0 | 2.03 | 7.54 | 36.52 | 0 | 0 | 2.28 | 3.61 |
| 08:24 | 2 | 15.7 | 66 | 57,346 | 0.39 | 0 | 1.95 | 7.75 | 39.74 | 0 | 0 | 2.76 | 4.27 |
| 08:23 | 2 | 15.7 | 66 | 57,327 | 0.38 | 0 | 2.49 | 8.22 | 36.42 | 0 | 0.71 | 2.76 | 4.27 |
| 08:22 | 2 | 15.6 | 66 | 57,302 | 0.39 | 0 | 2.58 | 8.61 | 36.74 | 0 | 0.71 | 2.75 | 4.28 |
| 08:21 | 2 | 15.6 | 66 | 57,279 | 0.39 | 0 | 2.6 | 8.61 | 34.64 | 0 | 1.43 | 2.75 | 4.28 |